Location: Vale
(35.4830°N, 81.3830°W)
Time: 13:32:11
(UTC-04:00)

Cosmos 2237 Rocket - Visible Passes

Search period start: 02 September 2014 00:00
Search period end: 12 September 2014 00:00
Orbit: 834 x 852 km, 71.0° (Epoch: 01 September)

Date Brightness Start Highest point End Pass type
(mag) Time Alt. Az. Time Alt. Az. Time Alt. Az.
02 Sep 4.2 05:34:58 10° SSE 05:39:40 27° ESE 05:44:23 10° NE visible
03 Sep 4.2 05:20:21 10° SSE 05:24:56 26° ESE 05:29:33 10° NE visible
04 Sep 4.3 05:05:44 10° SSE 05:10:13 25° ESE 05:14:43 10° NE visible
05 Sep 4.3 04:51:07 10° SSE 04:55:30 23° E 04:59:53 10° NE visible
06 Sep 4.3 04:36:31 10° SSE 04:40:46 22° E 04:45:02 10° NE visible
06 Sep 2.6 06:19:05 10° SW 06:24:28 43° WNW 06:29:53 10° N visible
07 Sep 4.3 04:22:50 13° SE 04:26:03 21° E 04:30:11 10° NE visible
07 Sep 2.6 06:04:43 12° SW 06:09:42 46° WNW 06:15:10 10° N visible
08 Sep 4.3 04:09:18 17° SE 04:11:20 20° E 04:15:20 10° NE visible
08 Sep 2.5 05:51:12 20° SW 05:54:57 48° WNW 06:00:27 10° N visible
09 Sep 4.3 03:55:41 18° ESE 03:56:37 19° E 04:00:27 10° ENE visible
09 Sep 2.4 05:37:34 29° SW 05:40:11 51° WNW 05:45:44 10° N visible
10 Sep 4.4 03:41:58 18° E 03:41:58 18° E 03:45:34 10° ENE visible
10 Sep 2.4 05:23:50 41° WSW 05:25:26 53° WNW 05:31:00 10° NNE visible
11 Sep 4.6 03:28:10 16° E 03:28:10 16° E 03:30:41 10° ENE visible
11 Sep 2.3 05:10:02 53° W 05:10:40 56° WNW 05:16:17 10° NNE visible
